Time,TemperatureF,DewpointF,PressureIn,WindDirection,WindDirectionDegrees,WindSpeedMPH,WindSpeedGustMPH,Humidity,HourlyPrecipIn,Conditions,Clouds,dailyrainin,SoftwareType,DateUTC
2013-11-29 00:06:00,36.9,30.0,30.49,SSE,149,0.0,1.0,76,0.00,,,0.00,weatherlink.com 1.10,2013-11-29 06:06:00,
2013-11-29 00:21:00,36.7,30.0,30.49,SSE,163,0.0,1.0,77,0.00,,,0.00,weatherlink.com 1.10,2013-11-29 06:21:00,
2013-11-29 00:36:00,36.4,30.0,30.49,SSW,193,1.0,2.0,76,0.00,,,0.00,weatherlink.com 1.10,2013-11-29 06:36:00,
2013-11-29 00:51:00,36.5,30.0,30.48,SSW,199,0.0,1.0,76,0.00,,,0.00,weatherlink.com 1.10,2013-11-29 06:51:00,
2013-11-29 01:06:00,36.4,29.0,30.48,SSW,201,1.0,1.0,75,0.00,,,0.00,weatherlink.com 1.10,2013-11-29 07:06:00,
2013-11-29 01:21:00,36.0,29.0,30.48,SW,217,0.0,1.0,75,0.00,,,0.00,weatherlink.com 1.10,2013-11-29 07:21:00,
2013-11-29 01:36:00,36.0,29.0,30.48,SW,216,0.0,1.0,75,0.00,,,0.00,weatherlink.com 1.10,2013-11-29 07:36:00,
2013-11-29 01:51:00,35.7,28.0,30.48,SW,217,0.0,1.0,74,0.00,,,0.00,weatherlink.com 1.10,2013-11-29 07:51:00,
2013-11-29 02:06:00,35.7,28.0,30.48,WSW,246,0.0,2.0,73,0.00,,,0.00,weatherlink.com 1.10,2013-11-29 08:06:00,
2013-11-29 02:21:00,35.9,28.0,30.49,SSW,211,1.0,2.0,72,0.00,,,0.00,weatherlink.com 1.10,2013-11-29 08:21:00,
2013-11-29 02:37:00,35.2,27.0,30.49,SW,218,0.0,1.0,73,0.00,,,0.00,weatherlink.com 1.10,2013-11-29 08:37:00,
2013-11-29 02:52:00,34.3,27.0,30.50,SW,217,0.0,0.0,75,0.00,,,0.00,weatherlink.com 1.10,2013-11-29 08:52:00,
2013-11-29 03:07:00,33.8,27.0,30.49,SW,218,0.0,0.0,76,0.00,,,0.00,weatherlink.com 1.10,2013-11-29 09:07:00,
2013-11-29 03:22:00,33.5,27.0,30.50,SW,217,0.0,0.0,77,0.00,,,0.00,weatherlink.com 1.10,2013-11-29 09:22:00,
2013-11-29 03:37:00,34.3,27.0,30.50,WSW,246,0.0,2.0,75,0.00,,,0.00,weatherlink.com 1.10,2013-11-29 09:37:00,
2013-11-29 03:52:00,33.8,27.0,30.50,WSW,246,0.0,1.0,76,0.00,,,0.00,weatherlink.com 1.10,2013-11-29 09:52:00,
2013-11-29 04:07:00,33.7,27.0,30.50,SSE,160,0.0,1.0,76,0.00,,,0.00,weatherlink.com 1.10,2013-11-29 10:07:00,
2013-11-29 04:22:00,33.3,27.0,30.50,SSE,160,0.0,1.0,77,0.00,,,0.00,weatherlink.com 1.10,2013-11-29 10:22:00,
2013-11-29 04:37:00,32.8,27.0,30.50,SSE,161,0.0,0.0,78,0.00,,,0.00,weatherlink.com 1.10,2013-11-29 10:37:00,
2013-11-29 04:52:00,32.9,27.0,30.50,SSE,160,0.0,0.0,78,0.00,,,0.00,weatherlink.com 1.10,2013-11-29 10:52:00,
2013-11-29 05:07:00,32.8,27.0,30.51,SSE,160,0.0,0.0,79,0.00,,,0.00,weatherlink.com 1.10,2013-11-29 11:07:00,
2013-11-29 05:22:00,32.6,27.0,30.50,SSE,160,0.0,0.0,79,0.00,,,0.00,weatherlink.com 1.10,2013-11-29 11:22:00,
2013-11-29 05:37:00,32.3,27.0,30.51,SSE,160,0.0,0.0,80,0.00,,,0.00,weatherlink.com 1.10,2013-11-29 11:37:00,
2013-11-29 05:52:00,32.1,27.0,30.51,SSE,160,0.0,0.0,80,0.00,,,0.00,weatherlink.com 1.10,2013-11-29 11:52:00,
2013-11-29 06:07:00,32.0,27.0,30.50,SSE,160,0.0,0.0,80,0.00,,,0.00,weatherlink.com 1.10,2013-11-29 12:07:00,
2013-11-29 06:22:00,32.1,27.0,30.50,SSE,160,0.0,0.0,80,0.00,,,0.00,weatherlink.com 1.10,2013-11-29 12:22:00,
2013-11-29 06:37:00,31.8,27.0,30.51,SSE,160,0.0,0.0,81,0.00,,,0.00,weatherlink.com 1.10,2013-11-29 12:37:00,
2013-11-29 06:52:00,31.8,27.0,30.52,SSE,160,0.0,0.0,81,0.00,,,0.00,weatherlink.com 1.10,2013-11-29 12:52:00,
2013-11-29 07:07:00,31.8,27.0,30.52,SSE,160,0.0,0.0,82,0.00,,,0.00,weatherlink.com 1.10,2013-11-29 13:07:00,
2013-11-29 07:22:00,31.2,27.0,30.53,SSE,160,0.0,0.0,84,0.00,,,0.00,weatherlink.com 1.10,2013-11-29 13:22:00,
2013-11-29 07:37:00,33.5,29.0,30.53,SSE,160,0.0,1.0,83,0.00,,,0.00,weatherlink.com 1.10,2013-11-29 13:37:00,
2013-11-29 07:52:00,35.0,30.0,30.53,SSE,160,0.0,1.0,81,0.00,,,0.00,weatherlink.com 1.10,2013-11-29 13:52:00,
2013-11-29 08:07:00,36.9,31.0,30.53,SSE,167,1.0,1.0,79,0.00,,,0.00,weatherlink.com 1.10,2013-11-29 14:07:00,
2013-11-29 08:22:00,38.1,32.0,30.54,South,178,1.0,2.0,80,0.00,,,0.00,weatherlink.com 1.10,2013-11-29 14:22:00,
2013-11-29 08:37:00,38.4,34.0,30.55,SW,214,3.0,4.0,83,0.00,,,0.00,weatherlink.com 1.10,2013-11-29 14:37:00,
2013-11-29 08:52:00,39.4,35.0,30.56,SSE,160,2.0,6.0,83,0.00,,,0.00,weatherlink.com 1.10,2013-11-29 14:52:00,
2013-11-29 09:07:00,40.0,35.0,30.56,SW,231,5.0,9.0,83,0.00,,,0.00,weatherlink.com 1.10,2013-11-29 15:07:00,
2013-11-29 09:22:00,41.4,37.0,30.55,SSE,163,6.0,8.0,83,0.00,,,0.00,weatherlink.com 1.10,2013-11-29 15:22:00,
2013-11-29 09:37:00,42.8,37.0,30.55,SSE,160,5.0,7.0,81,0.00,,,0.00,weatherlink.com 1.10,2013-11-29 15:37:00,
2013-11-29 09:53:00,44.3,38.0,30.55,SSW,198,3.0,8.0,78,0.00,,,0.00,weatherlink.com 1.10,2013-11-29 15:53:00,
2013-11-29 10:08:00,45.8,40.0,30.55,South,188,5.0,9.0,80,0.00,,,0.00,weatherlink.com 1.10,2013-11-29 16:08:00,
2013-11-29 10:23:00,47.0,41.0,30.55,SSW,208,10.0,12.0,80,0.00,,,0.00,weatherlink.com 1.10,2013-11-29 16:23:00,
2013-11-29 10:38:00,48.0,42.0,30.55,South,179,6.0,9.0,79,0.00,,,0.00,weatherlink.com 1.10,2013-11-29 16:38:00,
2013-11-29 10:53:00,49.2,42.0,30.54,South,190,7.0,9.0,75,0.00,,,0.00,weatherlink.com 1.10,2013-11-29 16:53:00,
2013-11-29 11:08:00,50.1,42.0,30.54,SSW,198,5.0,9.0,73,0.00,,,0.00,weatherlink.com 1.10,2013-11-29 17:08:00,
2013-11-29 11:23:00,50.9,41.0,30.53,SSE,150,7.0,9.0,69,0.00,,,0.00,weatherlink.com 1.10,2013-11-29 17:23:00,
2013-11-29 11:38:00,51.5,42.0,30.52,SW,226,3.0,9.0,70,0.00,,,0.00,weatherlink.com 1.10,2013-11-29 17:38:00,
2013-11-29 11:53:00,52.2,41.0,30.52,South,181,3.0,10.0,65,0.00,,,0.00,weatherlink.com 1.10,2013-11-29 17:53:00,
2013-11-29 12:08:00,52.9,41.0,30.51,SW,214,2.0,9.0,64,0.00,,,0.00,weatherlink.com 1.10,2013-11-29 18:08:00,
2013-11-29 12:23:00,53.5,41.0,30.49,SE,146,4.0,11.0,62,0.00,,,0.00,weatherlink.com 1.10,2013-11-29 18:23:00,
2013-11-29 12:38:00,54.1,39.0,30.49,SE,138,7.0,10.0,58,0.00,,,0.00,weatherlink.com 1.10,2013-11-29 18:38:00,
2013-11-29 12:53:00,54.9,40.0,30.48,SE,128,5.0,8.0,57,0.00,,,0.00,weatherlink.com 1.10,2013-11-29 18:53:00,
2013-11-29 13:08:00,54.8,39.0,30.47,SSW,205,7.0,10.0,55,0.00,,,0.00,weatherlink.com 1.10,2013-11-29 19:08:00,
2013-11-29 13:23:00,55.6,38.0,30.46,SE,145,5.0,11.0,52,0.00,,,0.00,weatherlink.com 1.10,2013-11-29 19:23:00,
2013-11-29 13:38:00,56.5,36.0,30.44,SE,127,6.0,11.0,47,0.00,,,0.00,weatherlink.com 1.10,2013-11-29 19:38:00,
2013-11-29 13:53:00,56.3,38.0,30.43,SSE,148,7.0,10.0,51,0.00,,,0.00,weatherlink.com 1.10,2013-11-29 19:53:00,
2013-11-29 14:08:00,57.0,38.0,30.43,SE,145,4.0,15.0,49,0.00,,,0.00,weatherlink.com 1.10,2013-11-29 20:08:00,
2013-11-29 14:23:00,57.6,36.0,30.42,SSE,150,10.0,15.0,45,0.00,,,0.00,weatherlink.com 1.10,2013-11-29 20:23:00,
2013-11-29 14:39:00,57.7,37.0,30.41,South,187,4.0,10.0,46,0.00,,,0.00,weatherlink.com 1.10,2013-11-29 20:39:00,
2013-11-29 14:54:00,58.1,39.0,30.41,ESE,105,7.0,10.0,49,0.00,,,0.00,weatherlink.com 1.10,2013-11-29 20:54:00,
2013-11-29 15:09:00,57.9,40.0,30.40,South,172,9.0,11.0,51,0.00,,,0.00,weatherlink.com 1.10,2013-11-29 21:09:00,
2013-11-29 15:24:00,57.3,39.0,30.40,ESE,112,5.0,12.0,51,0.00,,,0.00,weatherlink.com 1.10,2013-11-29 21:24:00,
2013-11-29 15:39:00,56.8,38.0,30.39,SE,135,7.0,12.0,50,0.00,,,0.00,weatherlink.com 1.10,2013-11-29 21:39:00,
2013-11-29 15:54:00,57.0,38.0,30.39,East,101,6.0,10.0,49,0.00,,,0.00,weatherlink.com 1.10,2013-11-29 21:54:00,
2013-11-29 16:09:00,56.8,37.0,30.40,SE,139,8.0,13.0,48,0.00,,,0.00,weatherlink.com 1.10,2013-11-29 22:09:00,
2013-11-29 16:24:00,56.7,37.0,30.40,SE,135,6.0,10.0,48,0.00,,,0.00,weatherlink.com 1.10,2013-11-29 22:24:00,
2013-11-29 16:39:00,56.7,36.0,30.39,SE,143,5.0,9.0,47,0.00,,,0.00,weatherlink.com 1.10,2013-11-29 22:39:00,
2013-11-29 16:54:00,55.6,37.0,30.39,SSE,154,2.0,8.0,50,0.00,,,0.00,weatherlink.com 1.10,2013-11-29 22:54:00,
2013-11-29 17:09:00,54.6,38.0,30.39,SE,135,3.0,8.0,53,0.00,,,0.00,weatherlink.com 1.10,2013-11-29 23:09:00,
2013-11-29 17:24:00,53.6,37.0,30.39,SE,143,4.0,6.0,54,0.00,,,0.00,weatherlink.com 1.10,2013-11-29 23:24:00,
2013-11-29 17:39:00,52.8,37.0,30.39,SE,131,3.0,5.0,55,0.00,,,0.00,weatherlink.com 1.10,2013-11-29 23:39:00,
2013-11-29 17:54:00,51.9,37.0,30.39,SE,124,2.0,6.0,57,0.00,,,0.00,weatherlink.com 1.10,2013-11-29 23:54:00,
2013-11-29 18:09:00,51.3,37.0,30.39,SE,136,2.0,3.0,58,0.00,,,0.00,weatherlink.com 1.10,2013-11-30 00:09:00,
2013-11-29 18:24:00,50.5,37.0,30.39,SE,128,3.0,4.0,60,0.00,,,0.00,weatherlink.com 1.10,2013-11-30 00:24:00,
2013-11-29 18:39:00,50.0,37.0,30.39,SE,128,2.0,4.0,62,0.00,,,0.00,weatherlink.com 1.10,2013-11-30 00:39:00,
2013-11-29 18:54:00,49.5,38.0,30.40,SE,145,1.0,5.0,64,0.00,,,0.00,weatherlink.com 1.10,2013-11-30 00:54:00,
2013-11-29 19:09:00,49.0,38.0,30.40,SE,145,1.0,4.0,65,0.00,,,0.00,weatherlink.com 1.10,2013-11-30 01:09:00,
2013-11-29 19:24:00,48.7,38.0,30.40,SE,145,2.0,3.0,66,0.00,,,0.00,weatherlink.com 1.10,2013-11-30 01:24:00,
2013-11-29 19:39:00,48.5,38.0,30.40,SSE,156,2.0,4.0,68,0.00,,,0.00,weatherlink.com 1.10,2013-11-30 01:39:00,
2013-11-29 19:54:00,48.2,38.0,30.40,SE,146,1.0,4.0,69,0.00,,,0.00,weatherlink.com 1.10,2013-11-30 01:54:00,
2013-11-29 20:09:00,47.8,38.0,30.40,SSE,150,1.0,3.0,70,0.00,,,0.00,weatherlink.com 1.10,2013-11-30 02:09:00,
2013-11-29 20:24:00,47.7,38.0,30.40,SE,130,2.0,5.0,70,0.00,,,0.00,weatherlink.com 1.10,2013-11-30 02:24:00,
2013-11-29 20:39:00,48.1,38.0,30.40,SSE,156,2.0,5.0,67,0.00,,,0.00,weatherlink.com 1.10,2013-11-30 02:39:00,
2013-11-29 20:54:00,47.7,38.0,30.40,SSE,163,2.0,3.0,68,0.00,,,0.00,weatherlink.com 1.10,2013-11-30 02:54:00,
2013-11-29 21:09:00,47.7,37.0,30.40,SE,126,2.0,5.0,67,0.00,,,0.00,weatherlink.com 1.10,2013-11-30 03:09:00,
2013-11-29 21:24:00,47.7,37.0,30.39,SE,143,1.0,3.0,67,0.00,,,0.00,weatherlink.com 1.10,2013-11-30 03:24:00,
2013-11-29 21:39:00,46.9,37.0,30.40,SE,131,0.0,1.0,68,0.00,,,0.00,weatherlink.com 1.10,2013-11-30 03:39:00,
2013-11-29 21:54:00,46.5,37.0,30.40,ESE,118,1.0,1.0,70,0.00,,,0.00,weatherlink.com 1.10,2013-11-30 03:54:00,
2013-11-29 22:09:00,46.0,37.0,30.39,SSE,160,0.0,2.0,71,0.00,,,0.00,weatherlink.com 1.10,2013-11-30 04:09:00,
2013-11-29 22:24:00,46.3,37.0,30.39,South,172,2.0,4.0,71,0.00,,,0.00,weatherlink.com 1.10,2013-11-30 04:24:00,
2013-11-29 22:39:00,46.1,38.0,30.40,SSW,203,0.0,3.0,72,0.00,,,0.00,weatherlink.com 1.10,2013-11-30 04:39:00,
2013-11-29 22:54:00,45.5,37.0,30.39,SSE,166,2.0,2.0,73,0.00,,,0.00,weatherlink.com 1.10,2013-11-30 04:54:00,
2013-11-29 23:09:00,45.8,38.0,30.39,SSW,196,2.0,5.0,74,0.00,,,0.00,weatherlink.com 1.10,2013-11-30 05:09:00,
2013-11-29 23:24:00,46.5,38.0,30.39,SSW,204,1.0,7.0,73,0.00,,,0.00,weatherlink.com 1.10,2013-11-30 05:24:00,
2013-11-29 23:39:00,46.5,39.0,30.39,SSE,160,1.0,4.0,74,0.00,,,0.00,weatherlink.com 1.10,2013-11-30 05:39:00,
2013-11-29 23:54:00,45.9,38.0,30.39,SW,222,1.0,3.0,75,0.00,,,0.00,weatherlink.com 1.10,2013-11-30 05:54:00,